EHRDEHGG

Guest
Details From EHRD - Rotterdam The Hague
To EHGG - Eelde
Flight Number -
Tags decoded
Created
Modified
Stats Distance 105 nm / 194 km
Max Altitude 0 ft / 0 m
Waypoints 2
Social Downloads 8
Likes 0
Share

Download

Looking for another format? Having issues loading an existing format? Contact us
Advertisement - Login to hide

Notes

Requested: EHRD EHGG

Route

EHRD EHGG

ID Type Via Altitude (ft/m) Position (lat/lon) Dist (leg/tot) Name
O EHRD APT - 0 / 0 51.95747 / 4.44166 - / 0 nm Rotterdam The Hague
O EHGG APT - 0 / 0 53.12103 / 6.57707 104 / 104 nm Eelde

Altitude Profile

Advertisement - Login to hide

EHRD

Details ICAO EHRD (RTM)
Name Rotterdam The Hague
Region Netherlands
Timezone Europe/Amsterdam (UTC+2.0)
Stats Elevation -15 ft / -5 m (AMSL)
Location 51.957500° 4.441690°
Runways 1
Magnetic Variation 1.560° E

METAR

EHRD 290025Z AUTO 21010KT 180V240 9999 FEW015CB SCT020 BKN032 15/12 Q1007 NOSIG

Decode

TAF

TAF EHRD 282302Z 2900/3006 22015KT 9999 SCT030 TEMPO 2900/2903 24020G30KT 5000 SHRA SCT020CB BKN030 BECMG 2906/2908 25018G28KT BECMG 2916/2919 23013KT BECMG 3000/3003 20007KT

Decode

Departure Runways

ID Width Length Bearing (true/mag) Surface Threshold Overrun Markings Lighting
06 148 ft / 45 m 7,198 ft / 2,194 m 57.03° / 55.47° ASPHALT 643 ft / 196 m 0 ft / 0 m UK-PREC-APP CENTERLINE EDGE THRESHOLD MALSR REIL-UNI
24 148 ft / 45 m 7,198 ft / 2,194 m 237.05° / 235.49° ASPHALT 646 ft / 197 m 0 ft / 0 m PREC-APP CENTERLINE EDGE THRESHOLD MALSR REIL-UNI

EHGG

Details ICAO EHGG (GRQ)
Name Groningen Eelde Airport
Region Netherlands
Timezone Europe/Amsterdam (UTC+2.0)
Stats Elevation 17 ft / 5 m (AMSL)
Location 53.118000° 6.575580°
Runways 1
Magnetic Variation 2.208° E

METAR

EHGG 290025Z AUTO 19011KT 160V220 9999 NCD 15/12 Q1005

Decode

TAF

TAF EHGG 282303Z 2900/3006 21012KT 9999 SCT040 PROB40 TEMPO 2901/2906 24015G25KT 5000 SHRA BKN018 SCT020CB BECMG 2906/2909 24018G28KT BECMG 2916/2919 22010KT

Decode

Destination Runways

ID Width Length Bearing (true/mag) Surface Threshold Overrun Markings Lighting
05 148 ft / 45 m 8,185 ft / 2,495 m 51.78° / 49.58° ASPHALT 0 ft / 0 m 98 ft / 30 m PREC-APP CENTERLINE EDGE THRESHOLD SALS
23 148 ft / 45 m 8,185 ft / 2,495 m 231.81° / 229.60° ASPHALT 0 ft / 0 m 98 ft / 30 m PREC-APP CENTERLINE EDGE THRESHOLD ALSF-I

Approach Navaids

Runway Type Ident Frequency Range Bearing (true/mag) Slope Elevation
23 LOC-ILS GRO 109.90 MHz 18 nm / 33 km 231.80° / 229.59 ° - 17 ft / 5 m (AMSL)
23 GS GRO 109.90 MHz 10 nm / 19 km 231.80° / 229.59 ° 3.00° 17 ft / 5 m (AMSL)

Popular Alternatives